ATLAS 5 CENTAUR DEB, 52973

Orbit data source: Space-Track

ATLAS 5 CENTAUR DEB, 52973 is space debris in HEO originally from a launch on Wed, 17 Oct 2018 UTC launched from the Air Force Eastern Test Range (AFETR). Debris objects in space refer to the collection of defunct objects orbiting the Earth. Examples of debris include non-operational satellites, rocket bodies, and fragments generated from explosions, collisions, or faulty payload assembly.

Loading next visibility...
Identifier
52973, 2018-079GX
Orbit
HEO
Country
Flag of USUS
Related business
Flag of USUnited Launch Alliance/Lockheed Martin (US)
Manufacturer
ULA Decatur
Mission
Spacecraft
Bus & Motor
Unknown
Mass
Unknown
Launch date (UTC)
2018-10-17 (8 years ago)
Launch vehicle
Unknown
Launch site
Air Force Eastern Test Range (AFETR)
Object type
Payload
Rocket body
Debris
Shape & HBR
Unknown shape, 1.1 m
Radar Cross Section
RCS unknown

Expand to show TLE details & history
Last TLE update: 2 months ago

TLE from 2 months ago
0 ATLAS 5 CENTAUR DEB
1 52973U 18079GX  26166.88208377 -.00000119  00000-0  00000-0 0  9997
2 52973  12.8193  69.1660 4510735 243.5335  63.6593  1.71398677 30408
Epoch: 2026-06-15T21:10Z
TLE epoch observation values (Epoch: 2026-06-15T21:10:12.037Z)
Latitude
0.00004°
Longitude
-152.61114°
Altitude
23,055.676 km
Speed
3.684 km/s
True Right ascension
04h 36m 24s
True Declination
0° 00' 00"
Sunlit
Object was in daylight at epoch
Visualization orbit readout
Latitude
Unknown
Longitude
Unknown
Altitude
Unknown
Speed
Unknown
Apparent Right ascension
Unknown
Apparent Declination
Unknown
Sunlit
N/A
Visualization observer readout
Local Sidereal Time
17:20:27
Azimuth
Unknown
Elevation
Unknown
Doppler factor
Unknown
Orbital elements
Apogee altitude
36,422.331 km
Perigee altitude
9,812.849 km
Semi-major axis
29,495.727 km
Eccentricity
0.45107
Inclination
12.8193°
RAAN
69.166°
Arg. of periapsis
243.5335°
True anomaly
116.36809°
Mean anomaly
63.6593°
Eccentric anomaly
89.50294°
Mean motion
0.42845 °/min
Orbital period
840.23 mins
BSTAR
0
Loading maneuver chart data...
Computing Atmospheric mass density...

Documentation

Showing up to 5 results
|